SCP
3 3 3 3 2 2 2 2 3 3 4 4 3 2 1 1 1 1 1 1 1 2 3 2 2 2 2 2 2 2 2 2 2 2 2 1 1 1 0 0 0 0 0
3 3 2 2 3 2 2 2 2 3 3 3 3 2 1 1 1 1 1 1 1 1 2 2 2 2 2 2 2 2 2 2 2 2 2 2 1 1 1 0 0 0 1
3 2 2 2 3 3 3 2 2 2 2 2 2 1 1 1 1 1 1 1 1 1 1 1 2 2 2 2 2 2 2 2 2 2 2 2 1 1 1 1 0 1 1
2 2 2 3 3 3 3 3 2 2 2 2 2 2 1 1 1 1 1 1 1 1 1 1 2 2 2 2 2 2 1 1 1 1 1 1 1 1 1 1 0 1 1
1 2 2 3 3 3 3 2 2 2 2 2 2 2 1 1 1 1 1 1 1 1 1 2 2 1 1 1 1 1 1 1 1 1 1 1 1 1 1 1 0 1 1
1 1 2 3 3 3 3 2 2 2 2 2 2 2 2 1 1 1 1 1 1 1 1 1 1 1 1 1 1 0 0 0 1 1 1 1 0 0 0 0 0 1 1
1 1 2 4 4 4 4 3 3 2 2 2 2 2 1 1 1 1 1 1 1 1 1 1 1 1 0 0 0 0 0 0 0 0 0 0 0 0 0 0 0 0 0
1 1 2 3 4 5 4 3 3 3 3 3 2 2 1 1 1 1 1 1 1 1 1 1 1 0 0 0 0 0 0 0 0 0 0 1 1 0 0 0 0 0 0
1 1 2 2 3 4 4 3 2 2 2 2 2 2 1 1 1 1 1 1 1 1 1 1 1 0 0 0 0 0 0 0 0 0 1 1 1 1 0 0 0 0 0
1 1 1 2 2 3 4 4 3 2 2 2 2 1 1 1 1 1 1 1 1 1 1 1 1 1 0 0 0 0 1 1 1 1 1 1 1 1 0 0 0 0 0
2 2 2 2 3 4 5 4 3 2 2 2 1 1 1 1 1 1 1 1 1 1 1 1 1 1 1 1 1 1 1 1 1 1 1 1 1 1 0 0 0 0 0
3 3 2 2 2 4 4 4 3 2 2 2 1 1 1 1 1 1 1 2 2 1 1 1 1 1 1 1 2 1 1 1 1 1 1 1 1 1 1 0 1 1 1
2 2 2 2 2 3 4 4 3 2 2 2 2 1 1 1 1 2 2 2 1 1 1 1 1 2 2 2 2 2 1 1 1 1 1 1 1 1 1 1 1 1 1
1 1 1 1 1 1 2 3 3 3 3 3 3 2 1 1 1 2 2 1 1 1 1 1 2 2 2 3 2 2 1 1 1 1 1 1 1 1 1 0 0 1 1
1 1 1 1 1 1 1 2 3 3 3 4 4 3 2 2 2 2 1 1 1 1 1 2 3 3 3 3 2 2 1 1 1 1 1 1 1 0 0 0 0 0 1
0 1 1 1 1 1 1 1 2 3 3 4 4 4 4 3 3 2 2 2 2 3 3 4 4 3 3 3 2 2 1 1 1 1 0 0 0 0 0 0 0 0 0
1 1 1 1 1 1 0 1 1 1 2 3 4 4 4 4 4 4 4 4 4 4 5 4 3 2 2 1 1 1 1 0 0 0 0 0 0 0 0 0 0 0 0
1 1 1 1 1 0 0 0 0 1 1 2 3 3 3 4 6 8 8 7 6 5 4 3 2 1 1 0 0 0 0 0 0 0 0 0 0 0 0 0 0 0 0
1 1 1 1 0 0 0 0 0 0 1 1 2 2 2 4 5 8 9 8 6 4 2 1 1 1 1 0 0 0 0 0 0 0 0 0 0 0 0 0 0 0 0
1 1 1 1 0 0 0 0 0 0 0 1 1 1 1 2 2 4 6 5 4 2 1 1 1 1 1 1 0 0 0 0 0 0 0 0 0 0 0 0 0 0 0
1 1 1 0 0 0 0 0 0 0 0 0 1 1 1 1 1 1 2 2 1 1 1 1 1 1 1 1 0 0 0 0 0 0 0 0 0 0 0 0 0 0 0
1 1 0 0 0 0 0 0 0 0 0 0 1 1 1 1 1 1 1 1 1 1 1 1 1 1 1 1 0 0 0 0 0 0 0 0 0 0 0 0 0 0 0
0 0 0 0 0 0 0 0 0 0 0 0 0 1 1 1 1 1 1 0 0 0 1 1 1 1 1 1 1 0 0 0 0 0 0 0 0 0 0 0 0 0 0
0 0 0 0 0 0 0 0 0 0 0 0 0 0 0 1 1 1 0 0 0 0 0 1 1 1 2 2 1 1 0 0 0 0 0 0 0 0 0 0 0 0 0
0 0 0 0 0 0 0 0 0 0 0 0 0 0 0 0 0 0 0 0 0 0 0 0 1 1 1 1 1 1 1 0 0 0 0 0 0 0 0 0 0 0 0
0 0 0 0 0 0 0 0 0 0 0 0 0 0 0 0 0 0 0 0 0 0 0 0 0 0 1 1 1 1 1 0 0 0 0 0 0 0 0 0 0 0 0
Wind_Speed
1 1 2 3 3 3 3 4 5 4 4 3 2 2 1 1 1 1 2 2 2 3 3 3 3 3 3 3 3 3 3 2 2 2 2 3 3 2 1 1 0 0 1
1 1 2 3 3 3 3 3 4 4 4 3 2 1 2 1 1 0 1 2 2 3 3 4 3 3 3 4 3 3 2 2 2 2 2 1 2 2 1 1 0 1 0
3 2 3 3 3 3 4 4 4 4 4 3 2 2 2 2 1 1 0 1 2 3 3 4 3 3 3 3 3 3 4 3 2 2 2 2 1 1 2 1 1 1 0
3 3 3 3 3 3 3 3 3 4 4 4 4 4 3 2 2 1 1 1 2 2 3 4 4 4 3 3 3 3 3 4 2 1 1 1 2 2 0 1 1 1 1
3 3 3 3 2 3 3 3 3 3 3 3 4 4 3 2 1 1 2 2 1 1 2 3 3 3 3 3 4 3 3 3 3 2 1 2 1 1 2 1 1 2 1
2 1 2 3 2 3 3 3 3 2 2 3 3 4 4 3 3 2 2 1 1 1 2 3 3 3 3 3 3 3 4 3 3 2 2 2 2 1 2 2 1 1 2
2 2 3 3 3 3 3 3 3 3 2 3 3 3 4 4 4 3 2 2 2 1 1 2 2 2 2 3 3 3 3 3 3 3 2 2 1 2 2 2 1 0 1
2 3 3 3 3 3 3 3 3 3 3 3 2 2 3 2 2 2 2 2 2 1 2 2 3 3 3 3 3 3 2 3 3 3 2 2 1 2 2 2 2 1 1
2 2 3 4 3 3 3 4 4 3 3 3 2 2 2 2 2 2 2 2 2 2 3 3 3 3 3 3 3 2 2 3 2 2 2 2 1 1 1 2 2 3 1
1 1 2 3 3 3 3 4 4 3 3 3 3 2 2 2 3 3 3 2 2 3 3 3 3 3 3 3 3 2 2 3 2 2 2 2 1 1 1 2 2 2 2
2 2 2 2 3 3 3 3 3 3 2 2 2 2 2 2 2 3 3 3 3 3 3 3 3 3 2 2 3 2 2 3 2 2 2 2 1 1 1 1 1 2 2
3 3 3 4 4 3 3 3 3 3 2 3 3 3 2 3 3 2 2 3 3 3 3 3 3 3 2 2 3 3 2 3 2 2 2 2 1 2 1 2 2 2 2
3 3 3 3 3 3 3 3 3 2 2 3 4 3 2 3 2 2 2 3 3 3 3 3 3 2 2 2 2 3 2 2 2 2 2 2 2 2 1 2 2 2 2
4 4 3 2 2 2 3 3 3 3 3 3 4 3 2 2 2 2 3 2 3 3 2 2 2 2 2 2 2 2 2 2 1 1 1 1 2 3 3 2 2 2 2
4 4 3 2 2 2 2 3 3 3 3 3 3 2 2 2 2 2 2 2 2 2 2 2 2 1 2 2 2 2 2 2 1 1 0 1 1 2 2 2 2 3 2
4 4 3 2 2 2 2 2 2 3 4 3 3 2 2 2 2 1 2 2 2 1 2 2 2 1 1 2 3 3 2 2 1 0 1 1 1 1 1 2 3 3 3
4 4 4 3 3 3 3 3 3 3 4 3 2 2 2 2 1 1 2 2 1 1 1 1 2 1 0 1 2 3 3 2 1 1 1 1 1 1 1 1 2 1 2
4 4 3 3 2 2 2 3 3 4 4 3 2 2 2 2 1 1 1 1 1 1 2 2 2 1 1 2 2 3 2 2 1 1 1 1 0 0 1 1 1 0 1
3 3 3 4 3 3 3 4 4 3 3 2 2 1 2 2 2 1 1 1 1 1 1 2 2 2 1 1 2 3 2 1 0 0 1 1 1 1 1 1 0 1 2
2 2 3 4 4 3 3 4 4 3 2 2 2 1 2 2 2 2 1 0 1 1 1 1 1 2 2 2 3 4 2 2 1 0 1 1 1 1 1 2 1 1 2
3 4 4 4 3 3 4 4 3 3 2 2 2 1 1 2 2 2 1 1 1 1 1 1 1 1 2 2 3 4 3 3 2 1 1 2 2 1 2 2 2 3 2
3 4 4 3 3 3 4 3 3 2 1 2 2 1 1 1 1 2 1 1 1 1 1 1 1 1 2 2 3 5 5 4 3 3 2 2 2 2 1 2 2 2 1
4 3 4 3 2 2 3 4 2 2 2 2 1 1 1 0 1 2 1 1 1 1 1 1 2 2 1 1 2 4 4 4 3 2 3 2 2 1 1 1 1 1 1
3 3 4 4 2 1 1 2 2 2 3 2 1 1 1 1 1 1 1 1 1 1 1 2 2 2 2 2 1 2 2 3 3 2 1 1 1 1 1 0 0 1 1
2 3 3 3 2 1 1 1 2 3 3 2 1 1 1 1 1 0 1 1 2 3 3 3 3 3 3 4 4 3 3 3 3 1 0 0 0 0 0 0 0 1 1
3 3 3 2 2 2 1 1 2 3 3 2 2 1 1 1 1 0 1 1 1 2 3 4 3 3 4 4 4 4 3 3 3 3 1 1 1 1 1 1 1 1 2
Wind_Direction
207 149 149 143 141 142 136 150 150 145 140 142 150 155 174 172 160 165 141 154 161 158 155 152 149 151 148 146 137 124 110 89 94 89 60 32 38 46 36 46 81 207 221
75 117 147 151 166 168 158 158 155 149 146 158 161 153 144 147 144 116 109 141 152 156 159 154 158 153 143 139 137 132 123 97 84 110 103 48 15 11 15 20 333 280 328
185 190 179 181 176 168 176 177 167 153 144 132 115 97 76 69 76 89 113 142 153 156 157 158 152 147 148 154 151 146 142 134 92 87 128 136 184 332 354 358 356 349 2
195 200 194 188 187 189 182 171 156 152 142 141 143 143 155 161 181 171 151 123 140 156 160 155 149 148 147 152 157 146 142 136 137 94 76 121 143 141 30 345 352 348 334
201 200 196 186 174 172 164 158 145 145 145 150 156 153 152 147 121 107 104 96 100 131 144 145 142 144 146 153 150 141 136 136 144 145 131 104 79 109 151 240 329 346 341
195 161 130 130 132 133 136 133 138 142 144 145 156 161 156 141 128 123 120 116 113 108 117 131 138 146 148 150 152 147 142 141 136 135 133 142 145 161 156 183 244 307 314
168 151 138 143 140 134 140 141 137 133 137 143 164 172 163 153 159 159 152 147 132 125 145 131 132 140 148 148 144 141 143 148 145 150 153 156 170 159 149 143 154 287 317
169 165 161 155 149 145 143 140 134 135 136 141 161 172 156 148 154 157 157 155 149 142 133 130 126 128 134 138 134 129 141 139 144 149 152 159 174 170 166 158 151 139 334
171 162 151 144 148 150 146 141 140 138 142 146 137 146 149 140 145 146 138 130 122 122 119 119 118 115 117 128 132 134 142 138 140 151 157 164 179 173 181 168 161 160 191
183 154 150 145 142 141 127 124 132 138 147 150 153 140 126 138 139 127 120 116 108 105 114 115 120 117 117 121 125 134 143 141 148 157 153 163 172 165 174 179 176 173 176
188 168 146 138 131 122 121 124 120 113 118 125 118 118 121 116 112 115 122 124 114 115 117 122 124 126 128 128 124 129 137 146 150 159 162 167 164 159 167 160 161 169 169
155 141 134 128 128 132 136 138 131 129 135 127 120 119 117 109 104 108 112 116 117 117 123 122 117 120 122 125 133 142 147 156 161 171 171 189 172 167 173 165 173 182 185
122 116 121 132 139 145 148 144 138 135 130 126 124 114 113 119 123 119 111 110 114 112 116 123 130 133 131 131 139 148 151 157 163 169 180 198 176 182 187 185 187 188 187
125 123 127 134 140 146 145 137 134 128 128 127 124 121 123 128 132 125 120 121 125 124 130 136 146 147 137 131 135 142 141 144 144 154 183 196 193 199 188 181 183 177 170
125 132 143 155 142 116 102 116 129 125 126 127 127 131 121 114 106 108 115 118 125 136 139 133 133 138 145 158 153 155 148 138 117 85 155 191 167 171 175 171 177 170 165
149 146 143 160 148 131 123 127 135 134 128 129 134 129 121 116 115 117 120 115 118 126 126 141 152 154 176 160 153 150 144 139 136 109 19 36 84 92 104 138 148 157 170
158 158 160 170 165 154 149 154 144 134 130 132 130 126 130 126 124 137 131 140 143 134 145 162 156 169 218 128 146 143 145 144 162 161 116 60 56 63 76 91 112 147 183
172 168 158 147 131 120 118 129 128 129 135 138 138 139 135 141 127 110 141 165 156 157 184 183 177 179 203 133 128 135 128 133 144 158 166 151 42 6 92 109 93 23 271
179 173 161 147 131 127 131 126 120 119 125 135 144 158 157 155 140 126 156 183 162 173 202 200 187 185 210 164 154 139 137 135 124 125 147 169 204 322 93 128 132 325 314
157 148 138 122 125 132 130 125 128 134 153 175 177 171 158 153 159 157 136 117 156 192 192 213 215 199 206 188 170 156 153 165 191 291 277 236 235 266 190 172 185 260 297
132 128 132 133 142 138 129 136 143 168 185 167 151 143 153 166 157 136 122 119 131 151 181 228 243 223 215 218 200 180 177 187 193 216 250 254 249 247 228 213 213 232 246
121 127 129 133 138 139 141 148 172 186 139 122 118 126 146 164 138 133 127 125 128 142 205 226 265 263 243 227 223 208 202 191 193 224 238 243 242 250 259 236 231 225 204
127 122 124 122 116 141 152 161 186 151 132 120 134 154 133 97 128 142 143 132 134 166 224 222 238 268 277 262 240 216 214 208 204 229 239 242 237 244 252 253 235 188 176
122 120 119 118 124 149 158 164 154 139 126 128 138 151 141 103 96 125 149 164 187 199 221 236 244 255 260 250 238 219 213 212 213 224 237 236 227 200 214 244 217 187 190
125 126 129 138 156 149 144 148 142 135 130 139 147 147 146 155 152 157 187 198 216 205 204 223 225 224 240 242 223 205 210 208 208 187 144 105 105 151 168 150 195 200 197
140 134 132 137 146 135 148 160 153 147 147 152 156 163 165 159 160 164 1 347 270 261 244 238 231 240 239 239 220 213 210 200 169 148 175 220 227 230 228 224 236 235 234